Regional Weather Roundup
Issued by NWS

Home | Current Version | Previous Version | Text Only | Print | Product List | Glossary On
Versions: 1 2 3 4 5 6 7 8 9 10 11 12 13 14 15 16 17 18 19 20 21 22 23 24 25 26 27 28 29 30 31 32 33 34 35 36 37 38 39 40 41 42 43 44 45 46 47 48 49 50
000
ASUS43 KFSD 240910
RWRSD

WEATHER ROUNDUP FOR SOUTH DAKOTA
NATIONAL WEATHER SERVICE SIOUX FALLS SD
400 AM CDT SUN SEP 24 2017

NOTE: "FAIR" INDICATES FEW OR NO CLOUDS BELOW 12,000 FEET WITH NO
SIGNIFICANT WEATHER AND/OR OBSTRUCTIONS TO VISIBILITY.


SDZ001>005-009-010-012>017-241000-
NORTHWEST AND NORTH CENTRAL SOUTH DAKOTA

CITY           SKY/WX    TMP DP  RH WIND       PRES   REMARKS
BUFFALO          N/A     45  44  97 N10       29.97S
FAITH            N/A     46  46 100 N14       29.96S
MOBRIDGE       LGT RAIN  52  50  93 N12       29.90F
$$

SDZ012>016-024>037-041>051-057-063-072>074-241000-
SOUTHWEST AND SOUTH CENTRAL SOUTH DAKOTA

CITY           SKY/WX    TMP DP  RH WIND       PRES   REMARKS
RAPID CTY ARPT NOT AVBL
PIERRE         RAIN      52  51  97 NW7       29.89F
CUSTER         CLOUDY    40  37  89 NW3       29.99S
ELLSWORTH AFB  LGT RAIN  44  44 100 NW12      30.00
PHILIP         LGT RAIN  48  48 100 N13       29.93F
PINE RIDGE     LGT RAIN  47  46  97 N10       29.93F
SPEARFISH      MOCLDY    41  41 100 NW7       30.04R FOG
WINNER         LGT RAIN  52  51  97 NW7       29.89F
$$

SDZ004>011-016>023-039-040-241000-
NORTHEAST SOUTH DAKOTA

CITY           SKY/WX    TMP DP  RH WIND       PRES   REMARKS
ABERDEEN       LGT RAIN  54  54 100 N10       29.88F
WATERTOWN      CLOUDY    61  61 100 SE10G20   29.86R
BROOKINGS      MOCLDY    60  58  92 S7        29.89R
SISSETON         N/A     58  58 100 CALM      29.85F
$$

SDZ017-020-022-023-036>040-048>070-241000-
SOUTHEAST SOUTH DAKOTA

CITY           SKY/WX    TMP DP  RH WIND       PRES   REMARKS
SIOUX FALLS    PTCLDY    60  60 100 E5        29.88S
HURON          LGT RAIN  55  55 100 NE3       29.87F
CHAMBERLAIN    RAIN      55  55 100 NW5       29.87S
MITCHELL       CLOUDY    57  55  93 N5        29.88F
YANKTON        CLOUDY    58  57  97 CALM      29.87S
$$

ABBREVIATIONS USED IN REMARKS
   TC - TEMPERATURE IN CELSIUS
  WCI - WIND CHILL INDEX
   HX - HEAT INDEX
  VSB - VISIBILITY





USA.gov is the U.S. government's official web portal to all federal, state and local government web resources and services.